Time,TemperatureF,DewpointF,PressureIn,WindDirection,WindDirectionDegrees,WindSpeedMPH,WindSpeedGustMPH,Humidity,HourlyPrecipIn,Conditions,Clouds,dailyrainin,SoftwareType,DateUTC
2013-04-20 11:02:00,33.0,31.0,29.92,North,-999,-999.0,-999.0,92,-99.99,,,-99.99,,2013-04-20 17:02:00,
2013-04-20 11:22:00,35.0,32.0,29.93,North,-999,-999.0,-999.0,88,-99.99,,,-99.99,,2013-04-20 17:22:00,
2013-04-20 11:33:00,35.0,32.0,29.93,North,-999,-999.0,-999.0,88,-99.99,,,-99.99,,2013-04-20 17:33:00,
2013-04-20 11:42:00,35.0,32.0,29.93,North,-999,-999.0,-999.0,88,-99.99,,,-99.99,,2013-04-20 17:42:00,
2013-04-20 11:52:00,35.0,31.0,29.93,North,-999,-999.0,-999.0,85,-99.99,,,-99.99,,2013-04-20 17:52:00,
2013-04-20 12:01:00,35.0,29.0,29.93,North,-999,-999.0,-999.0,80,-99.99,,,-99.99,,2013-04-20 18:01:00,
2013-04-20 12:12:00,35.0,29.0,29.93,North,-999,-999.0,-999.0,80,-99.99,,,-99.99,,2013-04-20 18:12:00,
2013-04-20 12:22:00,35.0,30.0,29.93,North,-999,-999.0,-999.0,81,-99.99,,,-99.99,,2013-04-20 18:22:00,
2013-04-20 12:32:00,36.0,32.0,29.93,North,-999,-999.0,-999.0,86,-99.99,,,-99.99,,2013-04-20 18:32:00,
2013-04-20 12:41:00,36.0,32.0,29.93,North,-999,-999.0,-999.0,86,-99.99,,,-99.99,,2013-04-20 18:41:00,
2013-04-20 12:52:00,36.0,33.0,29.93,North,-999,-999.0,-999.0,87,-99.99,,,-99.99,,2013-04-20 18:52:00,
2013-04-20 13:01:00,36.0,32.0,29.93,North,-999,-999.0,-999.0,86,-99.99,,,-99.99,,2013-04-20 19:01:00,
2013-04-20 13:21:00,39.0,31.0,29.93,North,-999,-999.0,-999.0,74,-99.99,,,-99.99,,2013-04-20 19:21:00,
2013-04-20 13:31:00,39.0,31.0,29.93,North,-999,-999.0,-999.0,74,-99.99,,,-99.99,,2013-04-20 19:31:00,
2013-04-20 13:42:00,39.0,31.0,29.93,North,-999,-999.0,-999.0,74,-99.99,,,-99.99,,2013-04-20 19:42:00,
2013-04-20 13:52:00,37.0,30.0,29.93,North,-999,-999.0,-999.0,77,-99.99,,,-99.99,,2013-04-20 19:52:00,
2013-04-20 14:02:00,35.0,31.0,29.93,North,-999,-999.0,-999.0,85,-99.99,,,-99.99,,2013-04-20 20:02:00,
2013-04-20 14:12:00,35.0,31.0,29.93,North,-999,-999.0,-999.0,85,-99.99,,,-99.99,,2013-04-20 20:12:00,
2013-04-20 14:21:00,38.0,32.0,29.93,North,-999,-999.0,-999.0,80,-99.99,,,-99.99,,2013-04-20 20:21:00,
2013-04-20 14:32:00,38.0,31.0,29.93,North,-999,-999.0,-999.0,77,-99.99,,,-99.99,,2013-04-20 20:32:00,
2013-04-20 14:42:00,38.0,31.0,29.93,North,-999,-999.0,-999.0,77,-99.99,,,-99.99,,2013-04-20 20:42:00,
2013-04-20 14:52:00,36.0,30.0,29.93,North,-999,-999.0,-999.0,80,-99.99,,,-99.99,,2013-04-20 20:52:00,
2013-04-20 15:01:00,35.0,32.0,29.93,North,-999,-999.0,-999.0,87,-99.99,,,-99.99,,2013-04-20 21:01:00,
2013-04-20 15:32:00,35.0,30.0,29.92,North,-999,-999.0,-999.0,81,-99.99,,,-99.99,,2013-04-20 21:32:00,
2013-04-20 15:43:00,35.0,30.0,29.92,North,-999,-999.0,-999.0,81,-99.99,,,-99.99,,2013-04-20 21:43:00,
2013-04-20 15:53:00,37.0,31.0,29.93,North,-999,-999.0,-999.0,80,-99.99,,,-99.99,,2013-04-20 21:53:00,
2013-04-20 16:02:00,37.0,32.0,29.92,North,-999,-999.0,-999.0,81,-99.99,,,-99.99,,2013-04-20 22:02:00,
2013-04-20 16:12:00,37.0,32.0,29.92,North,-999,-999.0,-999.0,81,-99.99,,,-99.99,,2013-04-20 22:12:00,
2013-04-20 16:22:00,38.0,33.0,29.92,North,-999,-999.0,-999.0,81,-99.99,,,-99.99,,2013-04-20 22:22:00,
2013-04-20 16:32:00,37.0,31.0,29.92,North,-999,-999.0,-999.0,80,-99.99,,,-99.99,,2013-04-20 22:32:00,
2013-04-20 16:42:00,37.0,31.0,29.92,North,-999,-999.0,-999.0,80,-99.99,,,-99.99,,2013-04-20 22:42:00,
2013-04-20 16:52:00,36.0,31.0,29.92,North,-999,-999.0,-999.0,83,-99.99,,,-99.99,,2013-04-20 22:52:00,
2013-04-20 17:02:00,35.0,31.0,29.92,North,-999,-999.0,-999.0,86,-99.99,,,-99.99,,2013-04-20 23:02:00,
2013-04-20 17:22:00,36.0,32.0,29.92,North,-999,-999.0,-999.0,85,-99.99,,,-99.99,,2013-04-20 23:22:00,
2013-04-20 17:32:00,36.0,32.0,29.92,North,-999,-999.0,-999.0,84,-99.99,,,-99.99,,2013-04-20 23:32:00,
2013-04-20 17:41:00,36.0,32.0,29.92,North,-999,-999.0,-999.0,84,-99.99,,,-99.99,,2013-04-20 23:41:00,
2013-04-20 17:52:00,37.0,32.0,29.92,North,-999,-999.0,-999.0,82,-99.99,,,-99.99,,2013-04-20 23:52:00,
2013-04-20 18:01:00,36.0,31.0,29.93,North,-999,-999.0,-999.0,83,-99.99,,,-99.99,,2013-04-21 00:01:00,
2013-04-20 18:11:00,36.0,31.0,29.93,North,-999,-999.0,-999.0,83,-99.99,,,-99.99,,2013-04-21 00:11:00,
2013-04-20 18:21:00,35.0,32.0,29.93,North,-999,-999.0,-999.0,87,-99.99,,,-99.99,,2013-04-21 00:21:00,
2013-04-20 18:32:00,35.0,32.0,29.93,North,-999,-999.0,-999.0,87,-99.99,,,-99.99,,2013-04-21 00:32:00,
2013-04-20 18:42:00,35.0,32.0,29.93,North,-999,-999.0,-999.0,87,-99.99,,,-99.99,,2013-04-21 00:42:00,
2013-04-20 18:52:00,33.0,31.0,29.93,North,-999,-999.0,-999.0,93,-99.99,,,-99.99,,2013-04-21 00:52:00,
2013-04-20 19:01:00,32.0,30.0,29.93,North,-999,-999.0,-999.0,94,-99.99,,,-99.99,,2013-04-21 01:01:00,
2013-04-20 19:11:00,32.0,30.0,29.93,North,-999,-999.0,-999.0,94,-99.99,,,-99.99,,2013-04-21 01:11:00,
2013-04-20 19:21:00,32.0,30.0,29.93,North,-999,-999.0,-999.0,94,-99.99,,,-99.99,,2013-04-21 01:21:00,
2013-04-20 19:31:00,32.0,30.0,29.94,North,-999,-999.0,-999.0,94,-99.99,,,-99.99,,2013-04-21 01:31:00,
2013-04-20 19:41:00,32.0,30.0,29.94,North,-999,-999.0,-999.0,94,-99.99,,,-99.99,,2013-04-21 01:41:00,
2013-04-20 19:52:00,32.0,30.0,29.94,North,-999,-999.0,-999.0,94,-99.99,,,-99.99,,2013-04-21 01:52:00,
2013-04-20 20:01:00,31.0,30.0,29.94,North,-999,-999.0,-999.0,95,-99.99,,,-99.99,,2013-04-21 02:01:00,
2013-04-20 20:11:00,31.0,30.0,29.94,North,-999,-999.0,-999.0,95,-99.99,,,-99.99,,2013-04-21 02:11:00,
2013-04-20 20:21:00,31.0,30.0,29.95,North,-999,-999.0,-999.0,96,-99.99,,,-99.99,,2013-04-21 02:21:00,
2013-04-20 20:31:00,31.0,30.0,29.95,North,-999,-999.0,-999.0,96,-99.99,,,-99.99,,2013-04-21 02:31:00,
2013-04-20 20:41:00,31.0,30.0,29.95,North,-999,-999.0,-999.0,96,-99.99,,,-99.99,,2013-04-21 02:41:00,
2013-04-20 20:52:00,31.0,30.0,29.96,North,-999,-999.0,-999.0,96,-99.99,,,-99.99,,2013-04-21 02:52:00,
2013-04-20 21:01:00,31.0,30.0,29.95,North,-999,-999.0,-999.0,96,-99.99,,,-99.99,,2013-04-21 03:01:00,
2013-04-20 21:11:00,31.0,30.0,29.95,North,-999,-999.0,-999.0,96,-99.99,,,-99.99,,2013-04-21 03:11:00,
2013-04-20 21:21:00,31.0,30.0,29.95,North,-999,-999.0,-999.0,96,-99.99,,,-99.99,,2013-04-21 03:21:00,
2013-04-20 21:32:00,31.0,30.0,29.96,North,-999,-999.0,-999.0,96,-99.99,,,-99.99,,2013-04-21 03:32:00,
2013-04-20 21:42:00,31.0,30.0,29.96,North,-999,-999.0,-999.0,96,-99.99,,,-99.99,,2013-04-21 03:42:00,
2013-04-20 21:52:00,31.0,30.0,29.97,North,-999,-999.0,-999.0,97,-99.99,,,-99.99,,2013-04-21 03:52:00,
2013-04-20 22:02:00,31.0,30.0,29.96,North,-999,-999.0,-999.0,97,-99.99,,,-99.99,,2013-04-21 04:02:00,
2013-04-20 22:12:00,31.0,30.0,29.96,North,-999,-999.0,-999.0,97,-99.99,,,-99.99,,2013-04-21 04:12:00,
2013-04-20 22:22:00,31.0,30.0,29.97,North,-999,-999.0,-999.0,97,-99.99,,,-99.99,,2013-04-21 04:22:00,
2013-04-20 22:33:00,31.0,30.0,29.97,North,-999,-999.0,-999.0,96,-99.99,,,-99.99,,2013-04-21 04:33:00,
2013-04-20 22:42:00,31.0,30.0,29.97,North,-999,-999.0,-999.0,96,-99.99,,,-99.99,,2013-04-21 04:42:00,
2013-04-20 22:53:00,31.0,30.0,29.97,North,-999,-999.0,-999.0,95,-99.99,,,-99.99,,2013-04-21 04:53:00,
2013-04-20 23:02:00,31.0,30.0,29.97,North,-999,-999.0,-999.0,95,-99.99,,,-99.99,,2013-04-21 05:02:00,
2013-04-20 23:12:00,31.0,30.0,29.97,North,-999,-999.0,-999.0,95,-99.99,,,-99.99,,2013-04-21 05:12:00,
2013-04-20 23:22:00,31.0,30.0,29.97,North,-999,-999.0,-999.0,95,-99.99,,,-99.99,,2013-04-21 05:22:00,
2013-04-20 23:32:00,31.0,29.0,29.97,North,-999,-999.0,-999.0,94,-99.99,,,-99.99,,2013-04-21 05:32:00,
2013-04-20 23:42:00,31.0,29.0,29.97,North,-999,-999.0,-999.0,94,-99.99,,,-99.99,,2013-04-21 05:42:00,
2013-04-20 23:52:00,31.0,29.0,29.97,North,-999,-999.0,-999.0,93,-99.99,,,-99.99,,2013-04-21 05:52:00,